• In Uzbekistan
  • List of Countries
  • For 7 days
  • Water Temperature
  • Satellite Maps
  • Weather Map
  • Weather Widgets
  • user-avatar
    Login

    Hourly Weather Telavi

    Today, 22 August, Tuesday

    Time Temperature Precipitation Wind Pressure Humidity
    00:00 +23°C° 0 mm 2 mps 707 mmHg 36%
    01:00 +23°C° 0 mm 2 mps 706 mmHg 39%
    02:00 +21°C° 0 mm 2 mps 706 mmHg 42%
    03:00 +23°C° 0 mm 2 mps 706 mmHg 42%
    04:00 +23°C° 0 mm 2 mps 706 mmHg 44%
    05:00 +21°C° 0 mm 2 mps 706 mmHg 45%
    06:00 +21°C° 0 mm 2 mps 706 mmHg 46%
    07:00 +25°C° 0 mm 1 mps 706 mmHg 40%
    08:00 +28°C° 0 mm 1 mps 706 mmHg 34%
    09:00 +31°C° 0 mm 1 mps 707 mmHg 28%
    10:00 +32°C° 0 mm 1 mps 706 mmHg 26%
    11:00 +34°C° 0 mm 2 mps 706 mmHg 24%
    12:00 +35°C° 0 mm 2 mps 706 mmHg 22%
    13:00 +36°C° 0 mm 2 mps 706 mmHg 21%
    14:00 +37°C° 0 mm 3 mps 706 mmHg 20%
    15:00 +37°C° 0 mm 2 mps 705 mmHg 19%
    16:00 +36°C° 0 mm 2 mps 705 mmHg 21%
    17:00 +35°C° 0 mm 2 mps 705 mmHg 22%
    18:00 +34°C° 0 mm 3 mps 705 mmHg 24%
    19:00 +31°C° 0 mm 2 mps 705 mmHg 26%
    20:00 +29°C° 0 mm 2 mps 706 mmHg 28%
    21:00 +26°C° 0 mm 2 mps 706 mmHg 31%
    22:00 +26°C° 0 mm 2 mps 706 mmHg 31%
    23:00 +25°C° 0 mm 2 mps 706 mmHg 31%

    Tomorrow, 23 August, Wednesday

    Time Temperature Precipitation Wind Pressure Humidity
    00:00 +24°C° 0 mm 2 mps 706 mmHg 31%
    01:00 +24°C° 0 mm 2 mps 706 mmHg 32%
    02:00 +23°C° 0 mm 2 mps 706 mmHg 33%
    03:00 +23°C° 0 mm 2 mps 706 mmHg 34%
    04:00 +23°C° 0 mm 1 mps 706 mmHg 35%
    05:00 +23°C° 0 mm 1 mps 707 mmHg 36%
    06:00 +23°C° 0 mm 1 mps 707 mmHg 37%
    07:00 +25°C° 0 mm 1 mps 707 mmHg 33%
    08:00 +27°C° 0 mm 1 mps 707 mmHg 30%
    09:00 +30°C° 0 mm 1 mps 707 mmHg 26%
    10:00 +31°C° 0 mm 2 mps 707 mmHg 24%
    11:00 +34°C° 0 mm 3 mps 707 mmHg 21%
    12:00 +35°C° 0 mm 4 mps 707 mmHg 19%
    13:00 +35°C° 0 mm 4 mps 707 mmHg 18%
    14:00 +36°C° 0 mm 4 mps 707 mmHg 17%
    15:00 +36°C° 0 mm 4 mps 707 mmHg 17%
    16:00 +35°C° 0 mm 3 mps 707 mmHg 18%
    17:00 +34°C° 0 mm 3 mps 707 mmHg 20%
    18:00 +32°C° 0 mm 2 mps 707 mmHg 22%
    19:00 +30°C° 0 mm 2 mps 708 mmHg 25%
    20:00 +28°C° 0 mm 2 mps 708 mmHg 28%
    21:00 +26°C° 0 mm 2 mps 709 mmHg 30%
    22:00 +25°C° 0 mm 2 mps 709 mmHg 33%
    23:00 +24°C° 0 mm 2 mps 709 mmHg 36%

    Day after tomorrow, 24 August, Thursday

    Time Temperature Precipitation Wind Pressure Humidity
    00:00 +23°C° 0 mm 2 mps 709 mmHg 39%
    01:00 +23°C° 0 mm 2 mps 709 mmHg 41%
    02:00 +23°C° 0 mm 2 mps 709 mmHg 42%
    03:00 +21°C° 0 mm 2 mps 709 mmHg 44%
    04:00 +21°C° 0 mm 2 mps 709 mmHg 44%
    05:00 +21°C° 0 mm 2 mps 709 mmHg 44%
    06:00 +21°C° 0 mm 2 mps 710 mmHg 45%
    07:00 +24°C° 0 mm 2 mps 710 mmHg 40%
    08:00 +27°C° 0 mm 1 mps 710 mmHg 35%
    09:00 +30°C° 0 mm 1 mps 710 mmHg 30%
    10:00 +31°C° 0 mm 2 mps 710 mmHg 26%
    11:00 +34°C° 0 mm 3 mps 710 mmHg 22%
    12:00 +35°C° 0 mm 4 mps 710 mmHg 18%
    13:00 +35°C° 0 mm 4 mps 710 mmHg 17%
    14:00 +36°C° 0 mm 4 mps 709 mmHg 16%
    15:00 +36°C° 0 mm 5 mps 709 mmHg 15%
    16:00 +35°C° 0 mm 4 mps 709 mmHg 17%
    17:00 +34°C° 0 mm 3 mps 709 mmHg 18%
    18:00 +32°C° 0 mm 2 mps 709 mmHg 20%
    19:00 +30°C° 0 mm 3 mps 710 mmHg 21%
    20:00 +27°C° 0 mm 3 mps 710 mmHg 22%
    21:00 +25°C° 0 mm 3 mps 711 mmHg 24%
    22:00 +25°C° 0 mm 3 mps 711 mmHg 24%
    23:00 +24°C° 0 mm 2 mps 711 mmHg 24%

    25 August, Friday

    Time Temperature Precipitation Wind Pressure Humidity
    00:00 +23°C° 0 mm 2 mps 711 mmHg 25%
    01:00 +23°C° 0 mm 2 mps 711 mmHg 26%
    02:00 +21°C° 0 mm 2 mps 711 mmHg 28%
    03:00 +21°C° 0 mm 2 mps 711 mmHg 30%
    04:00 +21°C° 0 mm 2 mps 711 mmHg 32%
    05:00 +20°C° 0 mm 2 mps 711 mmHg 34%
    06:00 +20°C° 0 mm 2 mps 711 mmHg 36%
    07:00 +24°C° 0 mm 2 mps 711 mmHg 32%
    08:00 +27°C° 0 mm 1 mps 711 mmHg 28%
    09:00 +29°C° 0 mm 1 mps 711 mmHg 23%
    10:00 +31°C° 0 mm 2 mps 711 mmHg 21%
    11:00 +32°C° 0 mm 2 mps 711 mmHg 18%
    12:00 +34°C° 0 mm 3 mps 711 mmHg 15%
    13:00 +35°C° 0 mm 3 mps 710 mmHg 14%
    14:00 +35°C° 0 mm 3 mps 710 mmHg 13%
    15:00 +36°C° 0 mm 4 mps 710 mmHg 13%
    16:00 +35°C° 0 mm 3 mps 710 mmHg 14%
    17:00 +33°C° 0 mm 3 mps 710 mmHg 15%
    18:00 +31°C° 0 mm 2 mps 710 mmHg 17%
    19:00 +29°C° 0 mm 2 mps 711 mmHg 18%
    20:00 +27°C° 0 mm 2 mps 711 mmHg 19%
    21:00 +25°C° 0 mm 3 mps 711 mmHg 21%
    22:00 +24°C° 0 mm 2 mps 711 mmHg 22%
    23:00 +23°C° 0 mm 2 mps 711 mmHg 23%

    26 August, Saturday

    Time Temperature Precipitation Wind Pressure Humidity
    00:00 +21°C° 0 mm 2 mps 711 mmHg 25%
    01:00 +21°C° 0 mm 2 mps 711 mmHg 26%
    02:00 +20°C° 0 mm 2 mps 711 mmHg 28%
    03:00 +20°C° 0 mm 2 mps 711 mmHg 29%
    04:00 +20°C° 0 mm 2 mps 711 mmHg 31%
    05:00 +19°C° 0 mm 2 mps 711 mmHg 32%
    06:00 +19°C° 0 mm 2 mps 711 mmHg 34%
    07:00 +23°C° 0 mm 1 mps 711 mmHg 30%
    08:00 +26°C° 0 mm 1 mps 711 mmHg 26%
    09:00 +28°C° 0 mm 1 mps 711 mmHg 22%
    10:00 +30°C° 0 mm 2 mps 711 mmHg 20%
    11:00 +31°C° 0 mm 2 mps 710 mmHg 18%
    12:00 +33°C° 0 mm 3 mps 710 mmHg 15%
    13:00 +34°C° 0 mm 3 mps 710 mmHg 15%
    14:00 +34°C° 0 mm 3 mps 709 mmHg 14%
    15:00 +35°C° 0 mm 3 mps 709 mmHg 13%
    16:00 +34°C° 0 mm 3 mps 709 mmHg 15%
    17:00 +31°C° 0 mm 2 mps 709 mmHg 17%
    18:00 +30°C° 0 mm 2 mps 709 mmHg 18%
    19:00 +28°C° 0 mm 2 mps 709 mmHg 20%
    20:00 +26°C° 0 mm 2 mps 710 mmHg 21%
    21:00 +24°C° 0 mm 2 mps 710 mmHg 23%
    22:00 +23°C° 0 mm 2 mps 710 mmHg 23%
    23:00 +21°C° 0 mm 2 mps 710 mmHg 24%

    27 August, Sunday

    Time Temperature Precipitation Wind Pressure Humidity
    00:00 +21°C° 0 mm 2 mps 710 mmHg 25%
    01:00 +20°C° 0 mm 2 mps 709 mmHg 26%
    02:00 +20°C° 0 mm 2 mps 709 mmHg 27%
    03:00 +19°C° 0 mm 2 mps 709 mmHg 29%
    04:00 +19°C° 0 mm 2 mps 709 mmHg 29%
    05:00 +19°C° 0 mm 2 mps 709 mmHg 30%
    06:00 +19°C° 0 mm 2 mps 709 mmHg 31%
    07:00 +23°C° 0 mm 1 mps 709 mmHg 28%
    08:00 +26°C° 0 mm 1 mps 710 mmHg 24%
    09:00 +29°C° 0 mm 1 mps 710 mmHg 21%
    10:00 +30°C° 0 mm 2 mps 709 mmHg 20%
    11:00 +31°C° 0 mm 2 mps 709 mmHg 18%
    12:00 +33°C° 0 mm 3 mps 709 mmHg 16%
    13:00 +34°C° 0 mm 3 mps 708 mmHg 16%
    14:00 +34°C° 0 mm 4 mps 708 mmHg 15%
    15:00 +35°C° 0 mm 4 mps 708 mmHg 14%
    16:00 +34°C° 0 mm 3 mps 708 mmHg 16%
    17:00 +31°C° 0 mm 3 mps 708 mmHg 18%
    18:00 +30°C° 0 mm 2 mps 708 mmHg 20%
    19:00 +28°C° 0 mm 2 mps 708 mmHg 21%
    20:00 +26°C° 0 mm 2 mps 708 mmHg 22%
    21:00 +24°C° 0 mm 2 mps 709 mmHg 23%
    22:00 +23°C° 0 mm 2 mps 708 mmHg 23%
    23:00 +21°C° 0 mm 2 mps 708 mmHg 23%
    Show more